Regional Weather Roundup
Issued by NWS

Home | Current Version | Previous Version | Graphics & Text | Print | Product List | Glossary On
Versions: 1 2 3 4 5 6 7 8 9 10 11 12 13 14 15 16 17 18 19 20 21 22 23 24 25 26 27 28 29 30 31 32 33 34 35 36 37 38 39 40 41 42 43 44 45 46 47 48 49 50
000
ASUS43 KOAX 060302
RWRNE

WEATHER ROUNDUP FOR NEBRASKA
NATIONAL WEATHER SERVICE OMAHA NE
900 PM CST MON DEC 05 2016

NOTES: SATELLITE DATA IS BEING USED TO AUGMENT CLOUD COVER ABOVE
       12000 FEET.
       "FAIR" INDICATES FEW OR NO CLOUDS BELOW 12,000 FEET WITH NO
       SIGNIFICANT WEATHER AND/OR OBSTRUCTIONS TO VISIBILITY.

  * THESE STATIONS DO NOT REPORT WEATHER SUCH AS RAIN...SNOW OR FOG.

NEZ001>004-019>022-054>056-060400-
NEBRASKA PANHANDLE

CITY           SKY/WX    TMP DP  RH WIND       PRES   REMARKS
SCOTTSBLUFF    CLEAR     20  10  65 W13       29.93R WCI   7
ALLIANCE       CLEAR     19   8  62 NW24G33   29.88R WCI   2
CHADRON        MOCLDY    19  10  68 CALM      29.94R
KIMBALL        CLEAR     19  13  77 NW26G33   29.83R WCI   1
SIDNEY         PTCLDY    20   9  62 N14       29.90S WCI   7
$$

NEZ057>060-069>072-079>082-060400-
SOUTHWEST NEBRASKA

CITY           SKY/WX    TMP DP  RH WIND       PRES   REMARKS
NORTH PLATTE   CLOUDY    27  15  61 NW9       29.90R WCI  18
IMPERIAL       CLOUDY    28  15  58 N20       29.91R WCI  15
LEXINGTON      CLOUDY    31  19  61 NW21G29   29.90R WCI  18
MCCOOK         CLOUDY    31  17  56 N14       29.90R WCI  21
OGALLALA       MOCLDY    28  16  60 NW18      29.92S WCI  15
$$

NEZ005>010-023>029-035>040-094-060400-
NORTH CENTRAL NEBRASKA

CITY           SKY/WX    TMP DP  RH WIND       PRES   REMARKS
VALENTINE      CLEAR     22  10  60 NW20G36   29.86R WCI   7
BROKEN BOW     CLOUDY    28  17  63 NW21      29.88R WCI  15
O`NEILL        CLOUDY    28  19  68 NW17G30   29.86S WCI  15
ORD            CLOUDY    29  16  58 NW22G28   29.87R WCI  15
THEDFORD       PTCLDY    24  15  69 NW15G22   29.89R WCI  11
$$

NEZ041-046>049-061>064-073>077-083>087-060400-
SOUTH CENTRAL NEBRASKA

CITY           SKY/WX    TMP DP  RH WIND       PRES   REMARKS
GRAND ISLAND   CLOUDY    32  22  66 NW28G33   29.85R WCI  18
AURORA         CLOUDY    33  24  70 N17G28    29.83R WCI  22
HASTINGS       CLOUDY    34  23  64 N30G36    29.84R WCI  20
HEBRON         PTCLDY    40  33  76 N17G28    29.78R WCI  31
HOLDREGE       CLOUDY    32  21  63 N17G26    29.86R WCI  21
KEARNEY *      CLOUDY    30  18  59 N18G25    29.85R WCI  18
YORK           CLOUDY    36  27  69 N20G29    29.81R WCI  25
$$

NEZ011>018-030>034-042>045-060400-
NORTHEAST NEBRASKA

CITY           SKY/WX    TMP DP  RH WIND       PRES   REMARKS
NORFOLK        CLOUDY    30  20  66 NW26G40   29.81R WCI  16
ALBION         CLOUDY    30  19  63 NW26G37   29.83R WCI  16
BLAIR          LGT RAIN  39  34  82 NW14G25   29.77R WCI  31
FREMONT        CLOUDY    36  31  82 NW18G25   29.81R WCI  25
TEKAMAH        CLOUDY    37  31  78 NW20G32   29.79R WCI  27
WAYNE          CLOUDY    33  25  73 NW21G29   29.80R WCI  21
$$

NEZ050>053-065>068-078-088>093-060400-
SOUTHEAST NEBRASKA

CITY           SKY/WX    TMP DP  RH WIND       PRES   REMARKS
LINCOLN        LGT RAIN  39  34  82 N22G31    29.79R WCI  29
OMAHA EPPLEY   LGT RAIN  43  37  79 NW18      29.77R
BEATRICE       CLOUDY    39  35  87 N6G18     29.74R WCI  34
FALLS CITY     CLEAR     37  34  89 SE3       29.73S
NEBRASKA CITY  CLOUDY    40  34  79 S8        29.73R WCI  35
PLATTSMOUTH    CLOUDY    43  34  70 S8        29.73R
$$

NEZ044-045-051>053-067-060400-
OMAHA AREA

CITY           SKY/WX    TMP DP  RH WIND       PRES   REMARKS
OMAHA EPPLEY   LGT RAIN  43  37  79 NW18      29.77R
BLAIR          LGT RAIN  39  34  82 NW14G25   29.77R WCI  31
FREMONT        CLOUDY    36  31  82 NW18G25   29.81R WCI  25
MILLARD        LGT RAIN  42  36  77 NW12G21   29.78R
OFFUTT AFB     CLOUDY    40  40 100 NW8       29.74R WCI  34
PLATTSMOUTH    CLOUDY    43  34  70 S8        29.73R
WAHOO          FLURRIES  36  30  78 NW18G29   29.78R WCI  26
$$




USA.gov is the U.S. government's official web portal to all federal, state and local government web resources and services.